Satellite: RS-30
Catalog number: 32953
Epoch time:      11314.63712874
Element set:     245
Inclination:      082.5010 deg
RA of node:       071.6643 deg
Eccentricity:    0.0019655
Arg of perigee:   068.9842 deg
Mean anomaly:     291.3338 deg
Mean motion:   12.43016869 rev/day
Decay rate:        1.0e-07 rev/day^2
Epoch rev:           15728
Checksum:              294

Satellite: TACSAT-3
Catalog number: 35001
Epoch time:      11313.61485440
Element set:    0757
Inclination:      040.4523 deg
RA of node:       005.6956 deg
Eccentricity:    0.0012343
Arg of perigee:   207.9902 deg
Mean anomaly:     152.0257 deg
Mean motion:   15.57874196 rev/day
Decay rate:     7.6419e-04 rev/day^2
Epoch rev:           13968
Checksum:              300

Satellite: PHARMSAT
Catalog number: 35002
Epoch time:      11313.54875955
Element set:    0700
Inclination:      040.4708 deg
RA of node:       005.4292 deg
Eccentricity:    0.0016065
Arg of perigee:   225.9561 deg
Mean anomaly:     133.9933 deg
Mean motion:   15.55404600 rev/day
Decay rate:     5.5006e-04 rev/day^2
Epoch rev:           13968
Checksum:              278

Satellite: HAWKSAT1
Catalog number: 35003
Epoch time:      11276.79285837
Element set:     811
Inclination:      040.4398 deg
RA of node:       174.3672 deg
Eccentricity:    0.0011414
Arg of perigee:   274.3918 deg
Mean anomaly:     085.3844 deg
Mean motion:   16.13812532 rev/day
Decay rate:   2.274821e-02 rev/day^2
Epoch rev:           13457
Checksum:              306

Satellite: CP6
Catalog number: 35004
Epoch time:      11247.64656856
Element set:     784
Inclination:      040.4403 deg
RA of node:       342.9642 deg
Eccentricity:    0.0002956
Arg of perigee:   038.0069 deg
Mean anomaly:     322.2231 deg
Mean motion:   16.41039951 rev/day
Decay rate:  1.6152067e-01 rev/day^2
Epoch rev:           13013
Checksum:              285

Satellite: METEOR-M
Catalog number: 35865
Epoch time:      11314.73442572
Element set:     887
Inclination:      098.6881 deg
RA of node:       007.8219 deg
Eccentricity:    0.0002539
Arg of perigee:   347.3117 deg
Mean anomaly:     012.7995 deg
Mean motion:   14.21845419 rev/day
Decay rate:        2.8e-07 rev/day^2
Epoch rev:           11141
Checksum:              307

Satellite: RS-38
Catalog number: 35869
Epoch time:      11314.71602121
Element set:     868
Inclination:      098.6849 deg
RA of node:       007.8290 deg
Eccentricity:    0.0004520
Arg of perigee:   337.9101 deg
Mean anomaly:     022.1878 deg
Mean motion:   14.22032134 rev/day
Decay rate:        8.7e-07 rev/day^2
Epoch rev:           11142
Checksum:              284

Satellite: ARISSAT1
Catalog number: 37772
Epoch time:      11314.89899601
Element set:     303
Inclination:      051.6326 deg
RA of node:       138.6818 deg
Eccentricity:    0.0003114
Arg of perigee:   085.0349 deg
Mean anomaly:     065.2295 deg
Mean motion:   15.75099869 rev/day
Decay rate:    1.80624e-03 rev/day^2
Epoch rev:            1544
Checksum:              318

Satellite: SRMSAT
Catalog number: 37839
Epoch time:      11314.89054292
Element set:      26
Inclination:      019.9635 deg
RA of node:       246.7055 deg
Eccentricity:    0.0018985
Arg of perigee:   328.1249 deg
Mean anomaly:     031.8008 deg
Mean motion:   14.11985316 rev/day
Decay rate:       6.19e-06 rev/day^2
Epoch rev:             421
Checksum:              300

Satellite: JUGNU
Catalog number: 37841
Epoch time:      11314.85979429
Element set:      24
Inclination:      019.9719 deg
RA of node:       247.4841 deg
Eccentricity:    0.0012391
Arg of perigee:   298.8583 deg
Mean anomaly:     061.0597 deg
Mean motion:   14.10082857 rev/day
Decay rate:       2.64e-06 rev/day^2
Epoch rev:             419
Checksum:              316

/EX


_______________________________________________
Via the Keps mailing list courtesy of AMSAT-NA
http://amsat.org/mailman/listinfo/keps

--- ViaMAIL!/WC v1.60d
 * Origin: Chowdanet (401-724-4410) telnet://chowdanet.com  (1:323/120)